Weather in Kenger-Meneuz

Russia / Republic of Bashkortostan     53°40′27″N   54°24′09″E
temp.,
°C
wind,
m/s
gust,
m/s
humid.,
%
clouds,
%
prec.,
mm/h
press.,
hPa
HPBL,
m
1 march, mon
mon123:00−18nw22959 0.0 100921
02:00−18nnw239515 0.0 101122
05:00−19nw129547 0.0 101320
08:00−18nw129588 0.0 101522
11:00−15nw229192 0.1 1017229
14:00−13nw2288100 0.1 1018347
17:00−13wnw3592100 0.1 1019325
20:00−18wnw229683 0.0 102020
2 march, tue
tue223:00−21w129972 0.0 102020
02:00−22wsw229957 0.0 102020
05:00−24sw339961 0.0 101933
08:00−23ssw41010082 0.0 1016214
11:00−17ssw7139791 0.1 1014336
14:00−13ssw91494100 0.8 1010516
17:00−10ssw91494100 1.6 1008589
20:00−8ssw81593100 0.6 1005594
3 march, wed
wed323:00−5sw81494100 1.2 1002598
02:00−3sw71395100 0.8 1000583
05:00−3sw5119599 1.1 1001362
08:00−3wsw489596 0.2 1001380
11:00−3w588898 0.3 1002748
14:00−3w579094 0.1 1002573
17:00−5wsw469378 0.1 1002371
20:00−5w379491 0.1 1003403
4 march, thu
thu423:00−7w369596 0.1 1004166
02:00−11wnw499494 0.0 1004164
05:00−13w349667 0.0 100657
08:00−15w349730 0.0 100757
11:00−11wsw489458 0.0 1008316
14:00−8sw71092100 0.1 1008507
17:00−7sw71292100 0.1 1007560
20:00−7sw81492100 0.2 1006695
5 march, fri
fri523:00−6sw101792100 0.4 1004802
02:00−3sw111894100 1.2 1001956
05:00−2sw121992100 2.3 9991092
08:00−2sw121993100 0.8 9991112
11:00−2wsw121893100 1.9 10011143
14:00−2w9147488 0.3 10051073
17:00−5w6128268 0.3 1009588
20:00−11w349241 0.0 101243